Location: Observatory
(52.1446°N, 0.4624°W)
Time: 16:15:56
(UTC+00:00)

ISS - Pass Details

Date: 14 November 2018
Orbit: 401 x 408 km, 51.6° (Epoch: 20 November)

Event Time Altitude Azimuth Distance (km) Brightness Sun altitude
Exits shadow 04:44:58 11° 163° (SSE) 1,416 -0.9 -23.6°
Drops below altitude 10° 04:45:05 10° 162° (SSE) 1,454 -0.8 -23.6°
Sets 04:47:28 0° 146° (SE) 2,316 0.5 -23.2°
